Simultaneous Nadir Overpasses (SNOs) Predictions

Prediction of SNOs between GOES-16 and NOAA-19 Satellite Orbit:

Table of predicted SNOs for the next 14.0 days since TLE Epoch: 9/11/2020
Index Date Time (GOES-16) GOES-16 Lat,Lon NOAA-19 Lat,Lon Distance(km) Time Diff (sec)
1 09/12/2020 11:26:57 -0.03, -75.18 0.87, -79.11 447.63 80
2 09/13/2020 11:15:14 -0.03, -75.18 0.23, -76.24 121.23 80
3 09/14/2020 11:00:53 -0.03, -75.19 -0.46, -73.39 205.29 80
4 09/16/2020 23:24:34 0.03, -75.19 -0.73, -78.35 361.63 80
5 09/17/2020 23:12:52 0.03, -75.20 -0.06, -75.50 34.69 80
6 09/18/2020 22:58:31 0.04, -75.21 0.62, -72.64 292.54 80
7 09/21/2020 11:22:04 -0.03, -75.24 0.49, -77.58 266.52 80
8 09/22/2020 11:07:41 -0.03, -75.26 -0.15, -74.72 61.02 80
9 09/23/2020 10:56:00 -0.03, -75.27 -0.85, -71.87 388.64 80
